星链-34739 (STARLINK-34739)

导读 | 豆包AI

STARLINK-34739是美国太空探索技术公司于2025年7月31日发射的星链星座低轨卫星,运行于约550公里近地轨道,属于全球星链互联网组网卫星。该卫星搭载多组相控阵天线,采用OFDM调制技术,依托氩气推进器实现轨道机动,可提供低时延高带宽的全球卫星互联网服务,为终端用户提供接近地面网络的通信体验。

基本信息
目录编号:
65066
目录名称:
STARLINK-34739
国际标识:
2025-165L
轨道中心:
EARTH
卫星名称:
星链-34739
卫星全名:
星链-34739 (STARLINK-34739)
卫星状态:
在轨 (已飞行272 天)
发射日期:
2025-07-31 UTC
国别 :
美国 (US)
星等 :
--
轨道信息
数据来源 国际轨道数据
星历时间: 2026-04-29T12:37:43+0800
6小时前
查看轨道信息
半长轴: 6927.638km
偏心率: 0.0000988
轨道倾角: 97.559°
近地点辐角 178.545°
升交点赤经 197.042°
平近点角 181.578°
近地点: 548.816km
远地点: 550.186km
周期: 95.640分钟
每日圈数: 15.056535
详细信息
固有亮度:
5
最大亮度:
2.5
卫星平台:
Starlink V1.0
覆盖范围:
全球
运营商:
太空探索技术公司
运营商所在国:
美国
制造商(研发单位):
太空探索技术公司
制造商所在国:
美国
使用方式:
暂无
卫星简介
Starlink 计划是 SpaceX 推出的全球卫星互联网项目,通过发射低轨道卫星,为全球尤其是偏远地区提供高速、低延迟的互联网服务。自 2019 年起,Starlink 已部署数千颗卫星,旨在缩小全球数字鸿沟,推动互联网普及。该项目还为军事、航空等行业提供通信支持,带来广泛经济效益。
2D轨道图
3D轨道图
轨道高度分析图
轨道倾角分析图
轨道综合分析图
查看轨道综合分析图